DW9665 Sarajevo BA current weather conditions

sailwx.info

Wind from 022 at 3 knots gusting 5

Air temperature 25.0° C
Dewpoint 6.7° C

Last reported at 2014-Aug-27 10:47 UTC.
Time now 2014-Aug-27 11:07 UTC

Location: N 43°50' E 018°21'.
View on Google Maps.

See reports from other nearby stations

  
Tides and Currents Weather Stations Pressure Air Temp Water Temp Dewpoint Dewpoint Depression Visibility Wind Speed Wind Dir Waves Ship Positions
date/time (UTC)wind fromknots sea level pressurealtimeterstation pressurevisibilityair tempwater tempwave heightnotes
2014-Aug-27 10:47 022 3 gusting 5 25.0
2014-Aug-27 10:32 315 0 gusting 5 25.0
2014-Aug-27 10:17 25.0
2014-Aug-27 10:02 338 4 gusting 6 25.6
2014-Aug-27 09:47 338 3 gusting 7 25.6
2014-Aug-27 09:32 315 5 gusting 1 25.6
2014-Aug-27 09:17 292 25.6
2014-Aug-27 09:02 090 0 gusting 5 25.0
2014-Aug-27 08:47 112 0 gusting 7 25.0
2014-Aug-27 08:32 135 2 gusting 8 25.6
2014-Aug-27 08:17 180 4 gusting 8 25.0
2014-Aug-27 08:02 068 1 gusting 5 23.9
2014-Aug-27 07:47 270 2 gusting 5 22.8
2014-Aug-27 07:32 045 3 gusting 8 21.7
2014-Aug-27 07:17 135 5 gusting 5 20.6
2014-Aug-27 07:02 292 20.0
2014-Aug-27 06:02 158 0 gusting 4 18.3
2014-Aug-27 05:47 270 2 gusting 4 19.4
2014-Aug-27 05:32 090 2 gusting 5 18.3
2014-Aug-27 05:17 270 17.8
2014-Aug-27 05:02 158 0 gusting 2 17.2
2014-Aug-27 04:47 180 0 gusting 2 16.1
2014-Aug-27 04:32 16.1
2014-Aug-27 04:17 16.1
2014-Aug-27 04:02 315 1 gusting 3 16.1
2014-Aug-27 03:47 090 16.1
2014-Aug-27 03:32 270 2 16.7
2014-Aug-27 02:47 090 1 gusting 4 16.7
2014-Aug-27 02:32 270 16.7
2014-Aug-27 02:17 16.7
2014-Aug-27 02:02 112 0 gusting 3 16.7
2014-Aug-27 01:47 180 1 gusting 4 17.2
2014-Aug-27 01:32 338 17.2
2014-Aug-27 01:17 135 17.8
2014-Aug-27 01:02 022 17.8
2014-Aug-27 00:47 022 17.8
2014-Aug-27 00:32 270 1 gusting 3 17.8
2014-Aug-27 00:17 17.8
2014-Aug-27 00:02 090 17.8
2014-Aug-26 23:47 158 0 gusting 4 17.8
2014-Aug-26 23:32 112 1 gusting 4 17.8
2014-Aug-26 23:17 022 0 gusting 3 17.8
2014-Aug-26 23:02 045 17.8
2014-Aug-26 22:47 180 17.8
2014-Aug-26 22:32 270 1 gusting 4 18.3
2014-Aug-26 22:17 135 0 gusting 3 18.3
2014-Aug-26 22:02 270 18.3
2014-Aug-26 21:47 180 18.3
2014-Aug-26 21:32 18.9
2014-Aug-26 21:17 135 1 gusting 5 18.9
2014-Aug-26 21:02 180 4 gusting 4 19.4
2014-Aug-26 20:47 090 0 gusting 3 20.0
2014-Aug-26 20:32 292 0 gusting 2 20.0
2014-Aug-26 20:17 022 1 gusting 3 20.6
2014-Aug-26 20:02 180 0 gusting 3 20.6
2014-Aug-26 19:47 090 1 gusting 2 21.1
2014-Aug-26 19:32 135 1 gusting 3 21.1
2014-Aug-26 19:17 112 1 gusting 2 21.7
2014-Aug-26 19:02 180 21.7
2014-Aug-26 18:47 022 22.2
2014-Aug-26 18:32 090 22.2
2014-Aug-26 18:17 022 2 gusting 2 22.2
2014-Aug-26 18:02 270 22.8
2014-Aug-26 17:47 068 23.3
2014-Aug-26 17:32 292 5 gusting 8 23.9
2014-Aug-26 17:17 270 3 gusting 6 23.9
2014-Aug-26 17:02 270 0 gusting 5 24.4
2014-Aug-26 16:47 270 0 gusting 5 25.0
2014-Aug-26 16:32 180 0 gusting 6 25.6
2014-Aug-26 16:17 292 1 gusting 7 25.6
2014-Aug-26 16:02 270 3 gusting 8 25.6
2014-Aug-26 15:47 292 8 gusting 10 25.6
2014-Aug-26 15:32 270 3 gusting 11 25.6
2014-Aug-26 15:17 270 7 gusting 11 25.6
2014-Aug-26 15:02 180 6 gusting 13 25.6
2014-Aug-26 14:47 270 4 gusting 17 25.6
2014-Aug-26 14:32 270 10 gusting 13 25.6
2014-Aug-26 14:17 292 11 gusting 15 25.6
2014-Aug-26 14:02 090 5 gusting 10 26.7
2014-Aug-26 13:47 180 5 gusting 17 26.1
2014-Aug-26 13:32 270 8 gusting 17 26.1
2014-Aug-26 13:17 270 10 gusting 17 25.6
2014-Aug-26 13:02 292 11 gusting 19 25.6
2014-Aug-26 12:47 270 9 gusting 19 25.6
2014-Aug-26 12:32 270 7 gusting 18 25.6
2014-Aug-26 12:17 292 4 gusting 10 26.1
2014-Aug-26 12:02 180 7 gusting 13 25.6
2014-Aug-26 11:47 270 5 gusting 14 25.0
2014-Aug-26 11:32 270 6 gusting 13 25.0
2014-Aug-26 11:17 270 9 gusting 22 25.0
2014-Aug-26 11:02 315 9 gusting 13 25.0
2014-Aug-26 10:47 292 12 gusting 13 24.4
2014-Aug-26 10:32 292 9 gusting 12 23.9
2014-Aug-26 10:17 270 6 gusting 9 23.9
2014-Aug-26 10:02 270 3 gusting 3 23.9
2014-Aug-26 09:47 23.3
2014-Aug-26 09:32 068 22.8
2014-Aug-26 09:17 045 0 gusting 3 22.2
2014-Aug-26 09:02 022 20.6
2014-Aug-26 08:47 270 0 gusting 2 20.0
2014-Aug-26 08:32 270 1 gusting 5 18.9
2014-Aug-26 08:17 270 3 gusting 4 17.8
2014-Aug-26 08:02 270 3 gusting 4 17.8
2014-Aug-26 07:47 270 1 gusting 3 17.2
2014-Aug-26 07:32 158 0 gusting 2 16.7
2014-Aug-26 07:17 180 0 gusting 2 17.8
2014-Aug-26 07:02 180 0 gusting 4 16.7
2014-Aug-26 06:47 135 15.6
2014-Aug-26 06:32 180 1 gusting 4 14.4
2014-Aug-26 06:17 270 1 gusting 3 14.4
2014-Aug-26 06:02 180 0 gusting 3 14.4
2014-Aug-26 05:47 270 13.9
2014-Aug-26 05:32 158 13.9
2014-Aug-26 05:17 090 0 gusting 2 12.8
2014-Aug-26 05:02 135 1 gusting 0 12.8
2014-Aug-26 04:47 270 12.8
2014-Aug-26 04:32 338 12.8
2014-Aug-26 04:17 270 1 gusting 2 12.8
2014-Aug-26 04:02 112 12.8
2014-Aug-26 03:47 158 12.8
2014-Aug-26 03:32 270 0 gusting 3 12.8
2014-Aug-26 03:17 270 12.8
2014-Aug-26 03:02 158 12.8
2014-Aug-26 02:47 135 12.8
2014-Aug-26 02:32 135 13.3
2014-Aug-26 02:17 180 13.3
2014-Aug-26 02:02 270 0 gusting 3 13.3
2014-Aug-26 01:47 270 13.3
2014-Aug-26 01:32 158 13.9
2014-Aug-26 01:17 158 13.9
2014-Aug-26 01:02 158 13.9
2014-Aug-26 00:47 158 14.4
2014-Aug-26 00:32 158 14.4
2014-Aug-26 00:17 135 14.4
2014-Aug-26 00:02 270 0 gusting 2 14.4
2014-Aug-25 23:47 270 14.4
2014-Aug-25 23:32 180 14.4
2014-Aug-25 23:17 180 15.0
2014-Aug-25 23:02 158 15.0
2014-Aug-25 22:47 292 1 gusting 2 15.6
2014-Aug-25 22:32 180 0 15.6
2014-Aug-25 22:17 158 15.6
2014-Aug-25 22:02 158 15.6
2014-Aug-25 21:47 158 16.1
2014-Aug-25 21:32 158 0 gusting 1 16.1
2014-Aug-25 21:17 270 16.7
2014-Aug-25 21:02 270 16.7
2014-Aug-25 20:47 292 0 gusting 2 16.7
2014-Aug-25 20:32 270 17.2
2014-Aug-25 20:17 270 17.2
2014-Aug-25 20:02 17.8
2014-Aug-25 19:47 180 17.8
2014-Aug-25 19:32 270 18.3
2014-Aug-25 19:17 270 18.3
2014-Aug-25 19:02 158 1 gusting 0 18.3
2014-Aug-25 18:47 270 18.9
2014-Aug-25 18:32 270 2 gusting 3 18.9
2014-Aug-25 18:17 270 1 gusting 1 19.4
2014-Aug-25 18:02 022 19.4
2014-Aug-25 17:47 270 1 gusting 2 19.4
2014-Aug-25 17:32 292 20.0
2014-Aug-25 17:17 292 2 gusting 5 20.0
2014-Aug-25 17:02 292 20.0
2014-Aug-25 16:47 270 3 gusting 7 20.6
2014-Aug-25 16:32 338 3 gusting 6 20.6
2014-Aug-25 16:17 292 2 gusting 5 20.6
2014-Aug-25 16:02 270 1 gusting 7 20.6
2014-Aug-25 15:47 270 4 gusting 8 21.1
2014-Aug-25 15:32 270 4 gusting 6 21.7
2014-Aug-25 15:17 180 1 gusting 6 22.2
2014-Aug-25 15:02 180 1 gusting 8 22.8
2014-Aug-25 14:47 270 2 gusting 7 22.2
2014-Aug-25 14:32 270 1 gusting 6 22.8
2014-Aug-25 14:17 22.8
2014-Aug-25 14:02 270 0 gusting 5 23.3
2014-Aug-25 13:47 180 1 gusting 5 23.3
2014-Aug-25 13:32 292 2 gusting 6 23.3
2014-Aug-25 13:17 270 2 gusting 4 22.8
2014-Aug-25 13:02 315 2 gusting 4 22.8
2014-Aug-25 12:47 338 3 gusting 4 22.2
2014-Aug-25 12:32 158 1 gusting 2 22.2
2014-Aug-25 12:17 022 0 gusting 5 21.7
2014-Aug-25 12:02 292 3 gusting 6 21.7
2014-Aug-25 11:47 158 4 gusting 4 20.6
2014-Aug-25 11:32 270 3 gusting 6 20.6
2014-Aug-25 11:17 180 3 gusting 4 21.1
2014-Aug-25 11:02 022 20.0